This is the latest recevied weather packets stored in our database for station/object KC3ULW-13. If no packets are shown the sender has not sent any weather packets the latest 1 day(s).
| Time | Temp. | Humidity | Pressure | Rain* | Wind** | Luminosity | Snow |
|---|---|---|---|---|---|---|---|
| 1778057479 | 13.89° C | 90% | 1009 hPa | 4.83 mm | - | 0 W/m² | - |
| 1778057176 | 13.89° C | 90% | 1009.2 hPa | 3.05 mm | - | 0 W/m² | - |
| 1778056570 | 13.89° C | 90% | 1009 hPa | 3.05 mm | - | 0 W/m² | - |
| 1778055964 | 13.89° C | 89% | 1008.9 hPa | 3.05 mm | - | 0 W/m² | - |
| 1778055358 | 13.89° C | 88% | 1008.9 hPa | 1.78 mm | - | 0 W/m² | - |
| 1778055055 | 14.44° C | 88% | 1009 hPa | 3.05 mm | - | 0 W/m² | - |
| 1778054449 | 14.44° C | 88% | 1009.1 hPa | 0 mm | - | 0 W/m² | - |
| 1778054147 | 14.44° C | 88% | 1009 hPa | 0 mm | - | 0 W/m² | - |
| 1778053541 | 14.44° C | 88% | 1008.7 hPa | 0 mm | - | 0 W/m² | - |
| 1778053238 | 14.44° C | 88% | 1008.5 hPa | 0 mm | - | 0 W/m² | - |
| 1778052936 | 14.44° C | 88% | 1008.7 hPa | 0 mm | - | 0 W/m² | - |
| 1778052633 | 14.44° C | 88% | 1008.6 hPa | 0 mm | - | 0 W/m² | - |
| 1778052330 | 14.44° C | 88% | 1008.8 hPa | 0 mm | - | 0 W/m² | - |
| 1778051120 | 14.44° C | 88% | 1009.2 hPa | 0 mm | - | 0 W/m² | - |
| 1778050515 | 14.44° C | 88% | 1009.5 hPa | 0 mm | - | 0 W/m² | - |
| 1778050211 | 14.44° C | 88% | 1009.5 hPa | 0 mm | - | 0 W/m² | - |
| 1778049908 | 14.44° C | 88% | 1009.8 hPa | 1.27 mm | - | 0 W/m² | - |
| 1778048697 | 14.44° C | 87% | 1009.7 hPa | 1.27 mm | - | 0 W/m² | - |
| 1778047486 | 15° C | 86% | 1010.1 hPa | 0 mm | - | 0 W/m² | - |
| 1778047182 | 15° C | 85% | 1010.3 hPa | 1.78 mm | - | 0 W/m² | - |
| 1778046273 | 15° C | 82% | 1010.6 hPa | 1.27 mm | - | 0 W/m² | - |
| 1778045667 | 15.56° C | 81% | 1010.6 hPa | 0 mm | - | 0 W/m² | - |
| 1778045064 | 15.56° C | 80% | 1010.4 hPa | 0 mm | - | 0 W/m² | - |
| 1778044761 | 15.56° C | 80% | 1010.7 hPa | 1.78 mm | - | 0 W/m² | - |
| 1778044154 | 16.11° C | 77% | 1010.9 hPa | 1.27 mm | - | 0 W/m² | - |
* Rain latest hour (hover to see other rain measurements)
** Current wind speed in m/s (hover to see current wind gust speed)